TimeEDT,TemperatureF,Dew PointF,Humidity,Sea Level PressureIn,VisibilityMPH,Wind Direction,Wind SpeedMPH,Gust SpeedMPH,PrecipitationIn,Events,Conditions,WindDirDegrees,DateUTC
12:15 AM,62.6,48.7,60,30.15,10.0,SW,13.8,-,N/A,,Overcast,220,2013-05-15 04:15:00
12:35 AM,62.8,49.1,61,30.14,10.0,SW,13.8,-,N/A,,Overcast,220,2013-05-15 04:35:00
12:55 AM,62.8,50.0,63,30.14,10.0,SW,12.7,-,N/A,,Overcast,220,2013-05-15 04:55:00
1:15 AM,63.0,50.2,63,30.14,10.0,SW,13.8,-,N/A,,Scattered Clouds,220,2013-05-15 05:15:00
1:35 AM,63.0,50.5,64,30.14,10.0,SW,11.5,-,N/A,,Scattered Clouds,220,2013-05-15 05:35:00
1:55 AM,63.1,50.7,64,30.14,10.0,SW,10.4,-,N/A,,Mostly Cloudy,220,2013-05-15 05:55:00
2:15 AM,63.5,51.3,64,30.14,10.0,SW,11.5,-,N/A,,Mostly Cloudy,220,2013-05-15 06:15:00
2:35 AM,63.7,51.6,65,30.13,10.0,SW,13.8,-,N/A,,Scattered Clouds,220,2013-05-15 06:35:00
2:55 AM,63.7,52.0,66,30.12,10.0,SW,13.8,-,N/A,,Clear,220,2013-05-15 06:55:00
3:15 AM,63.9,52.0,65,30.12,10.0,SW,15.0,-,N/A,,Scattered Clouds,220,2013-05-15 07:15:00
3:35 AM,63.7,52.0,66,30.12,10.0,SW,12.7,-,N/A,,Scattered Clouds,220,2013-05-15 07:35:00
3:55 AM,63.9,52.0,65,30.11,10.0,SW,13.8,-,N/A,,Scattered Clouds,220,2013-05-15 07:55:00
4:15 AM,64.4,51.6,63,30.10,10.0,SW,16.1,19.6,N/A,,Overcast,220,2013-05-15 08:15:00
4:35 AM,64.6,52.3,64,30.10,10.0,SSW,13.8,-,N/A,,Overcast,210,2013-05-15 08:35:00
4:55 AM,64.4,52.5,65,30.10,10.0,SW,16.1,-,N/A,,Overcast,220,2013-05-15 08:55:00
5:15 AM,64.6,52.9,66,30.09,10.0,SW,18.4,-,N/A,,Overcast,220,2013-05-15 09:15:00
5:35 AM,64.8,53.1,66,30.09,10.0,SW,16.1,-,N/A,,Mostly Cloudy,220,2013-05-15 09:35:00
5:55 AM,64.8,54.0,68,30.10,10.0,SSW,15.0,-,N/A,,Overcast,210,2013-05-15 09:55:00
6:15 AM,65.1,54.3,68,30.10,10.0,SSW,17.3,-,N/A,,Overcast,210,2013-05-15 10:15:00
6:35 AM,65.3,54.5,68,30.10,10.0,SW,18.4,-,N/A,,Overcast,220,2013-05-15 10:35:00
6:55 AM,65.3,54.9,69,30.10,10.0,SW,16.1,-,N/A,,Overcast,220,2013-05-15 10:55:00
7:15 AM,65.7,55.4,69,30.10,10.0,SW,17.3,21.9,N/A,,Overcast,220,2013-05-15 11:15:00
7:35 AM,66.6,55.8,68,30.09,10.0,SW,16.1,21.9,N/A,,Overcast,220,2013-05-15 11:35:00
7:55 AM,66.6,55.9,69,30.09,10.0,SW,16.1,-,N/A,,Overcast,220,2013-05-15 11:55:00
8:15 AM,67.8,56.1,66,30.08,10.0,SW,18.4,-,N/A,,Scattered Clouds,220,2013-05-15 12:15:00
8:35 AM,69.3,56.1,63,30.08,10.0,SW,19.6,25.3,N/A,,Clear,220,2013-05-15 12:35:00
8:55 AM,70.3,55.6,59,30.08,10.0,SW,19.6,26.5,N/A,,Clear,220,2013-05-15 12:55:00
9:15 AM,71.2,55.0,56,30.08,10.0,SW,16.1,24.2,N/A,,Clear,220,2013-05-15 13:15:00
9:35 AM,72.5,55.8,56,30.07,10.0,SW,15.0,21.9,N/A,,Clear,220,2013-05-15 13:35:00
9:55 AM,73.4,54.5,51,30.06,10.0,SW,19.6,25.3,N/A,,Clear,220,2013-05-15 13:55:00
10:15 AM,74.1,55.0,51,30.05,10.0,SW,19.6,26.5,N/A,,Clear,220,2013-05-15 14:15:00
10:35 AM,74.5,55.0,51,30.06,10.0,SW,17.3,26.5,N/A,,Clear,230,2013-05-15 14:35:00
10:55 AM,75.2,55.6,50,30.05,10.0,SW,17.3,24.2,N/A,,Clear,230,2013-05-15 14:55:00
11:15 AM,75.6,56.3,51,30.04,10.0,SW,17.3,-,N/A,,Clear,220,2013-05-15 15:15:00
11:35 AM,76.5,56.7,50,30.04,10.0,SW,16.1,-,N/A,,Clear,220,2013-05-15 15:35:00
11:55 AM,77.2,56.7,49,30.04,10.0,SW,18.4,-,N/A,,Clear,220,2013-05-15 15:55:00
12:15 PM,77.7,57.2,49,30.03,10.0,SW,11.5,20.7,N/A,,Clear,220,2013-05-15 16:15:00
12:35 PM,78.3,57.6,49,30.03,10.0,SW,16.1,-,N/A,,Clear,220,2013-05-15 16:35:00
12:55 PM,79.5,57.4,47,30.01,10.0,SW,16.1,-,N/A,,Clear,220,2013-05-15 16:55:00
1:15 PM,80.4,58.3,47,30.01,10.0,SW,13.8,-,N/A,,Clear,220,2013-05-15 17:15:00
1:35 PM,80.1,59.5,49,30.00,10.0,SSW,13.8,-,N/A,,Clear,210,2013-05-15 17:35:00
1:55 PM,80.6,60.8,51,29.98,10.0,SSW,16.1,-,N/A,,Clear,200,2013-05-15 17:55:00
2:15 PM,79.7,61.2,53,29.98,10.0,SSW,17.3,-,N/A,,Clear,200,2013-05-15 18:15:00
2:35 PM,80.2,62.2,54,29.97,10.0,SSW,17.3,24.2,N/A,,Clear,210,2013-05-15 18:35:00
2:55 PM,80.2,62.8,55,29.96,10.0,SSW,16.1,-,N/A,,Clear,200,2013-05-15 18:55:00
3:15 PM,78.1,63.3,60,29.95,10.0,South,17.3,-,N/A,,Clear,190,2013-05-15 19:15:00
3:35 PM,77.9,63.9,62,29.94,10.0,SSW,16.1,-,N/A,,Clear,200,2013-05-15 19:35:00
3:55 PM,77.4,63.5,62,29.93,10.0,South,17.3,-,N/A,,Clear,190,2013-05-15 19:55:00
4:15 PM,79.2,63.9,59,29.92,10.0,SSW,20.7,-,N/A,,Clear,200,2013-05-15 20:15:00
4:35 PM,79.3,63.9,59,29.92,10.0,SSW,17.3,-,N/A,,Clear,200,2013-05-15 20:35:00
4:55 PM,78.8,63.7,60,29.92,10.0,SSW,17.3,-,N/A,,Clear,200,2013-05-15 20:55:00
5:15 PM,78.8,64.4,61,29.91,10.0,SSW,16.1,-,N/A,,Clear,200,2013-05-15 21:15:00
5:35 PM,79.3,64.4,60,29.91,10.0,SSW,15.0,-,N/A,,Clear,200,2013-05-15 21:35:00
5:55 PM,78.4,64.4,62,29.90,10.0,SSW,15.0,-,N/A,,Clear,200,2013-05-15 21:55:00
6:15 PM,78.4,64.0,61,29.90,10.0,SSW,16.1,-,N/A,,Clear,200,2013-05-15 22:15:00
6:35 PM,76.8,64.6,66,29.89,10.0,SSW,15.0,-,N/A,,Clear,200,2013-05-15 22:35:00
6:55 PM,75.9,64.4,67,29.88,10.0,SSW,17.3,-,N/A,,Clear,200,2013-05-15 22:55:00
7:15 PM,75.0,64.4,69,29.88,10.0,SSW,16.1,-,N/A,,Clear,200,2013-05-15 23:15:00
7:35 PM,74.3,64.6,72,29.89,10.0,SSW,13.8,-,N/A,,Clear,200,2013-05-15 23:35:00
7:55 PM,74.3,64.0,70,29.89,10.0,SSW,13.8,-,N/A,,Clear,200,2013-05-15 23:55:00
8:15 PM,73.8,63.5,70,29.89,10.0,SSW,16.1,-,N/A,,Clear,210,2013-05-16 00:15:00
8:35 PM,73.6,63.0,69,29.89,10.0,SSW,16.1,-,N/A,,Clear,210,2013-05-16 00:35:00
8:55 PM,72.7,63.0,71,29.90,10.0,SSW,15.0,-,N/A,,Clear,210,2013-05-16 00:55:00
9:15 PM,72.7,62.6,71,29.91,10.0,SSW,15.0,-,N/A,,Clear,210,2013-05-16 01:15:00
9:35 PM,72.5,62.8,71,29.91,10.0,SSW,12.7,-,N/A,,Clear,210,2013-05-16 01:35:00
9:55 PM,72.1,63.3,74,29.91,10.0,SSW,10.4,-,N/A,,Clear,210,2013-05-16 01:55:00
10:15 PM,71.8,63.1,74,29.91,10.0,SSW,12.7,-,N/A,,Clear,210,2013-05-16 02:15:00
10:35 PM,71.8,63.5,75,29.91,10.0,SSW,11.5,-,N/A,,Clear,210,2013-05-16 02:35:00
10:55 PM,71.6,63.7,76,29.91,10.0,SW,12.7,-,N/A,,Clear,220,2013-05-16 02:55:00
11:15 PM,71.8,63.5,75,29.91,10.0,SW,12.7,-,N/A,,Clear,220,2013-05-16 03:15:00
11:35 PM,71.6,63.5,76,29.91,10.0,SW,9.2,-,N/A,,Clear,220,2013-05-16 03:35:00
11:55 PM,71.6,63.5,76,29.91,10.0,SW,10.4,17.3,N/A,,Clear,220,2013-05-16 03:55:00